Regional Weather Roundup
Issued by NWS

Home | Current Version | Previous Version | Graphics & Text | Print | Product List | Glossary On
Versions: 1 2 3 4 5 6 7 8 9 10 11 12 13 14 15 16 17 18 19 20 21 22 23 24 25 26 27 28 29 30 31 32 33 34 35 36 37 38 39 40 41 42 43 44 45 46 47 48 49 50
000
ASUS43 KDMX 210401
RWRIA

WEATHER ROUNDUP FOR IOWA
NATIONAL WEATHER SERVICE DES MOINES IA
1100 PM CDT SUN MAY 20 2018

NOTE: "FAIR" INDICATES FEW OR NO CLOUDS BELOW 12,000 FEET WITH NO
SIGNIFICANT WEATHER AND/OR OBSTRUCTIONS TO VISIBILITY.

* - THESE STATIONS ARE NOT NWS STATIONS...THUS NOT UNDER NWS
QUALITY CONTROL.  THEY ALSO DO NOT REPORT WEATHER SUCH
AS PRECIPITATION OR FOG.

IAZ001>003-012>014-020>022-031>034-043>046-210500-
   NORTHWEST IOWA

CITY           SKY/WX    TMP DP  RH WIND       PRES   REMARKS
CARROLL *      CLOUDY   N/A N/A N/A E10       30.08F HAZE
CHEROKEE *     DRIZZLE   56  56 100 E6        30.10S
DENISON *      CLOUDY    59  59 100 E13       30.09S FOG
LE MARS *      CLOUDY    57  55  94 CALM      30.10S FOG
ORANGE CITY *  RAIN      55  55 100 E6        30.11S
SHELDON *      LGT RAIN  55  55 100 E3        30.09F
SIOUX CITY     CLOUDY    55  54  96 NW5       30.09S FOG
SPENCER        LGT RAIN  56  54  93 E9        30.11S
STORM LAKE *   MOCLDY    55  55 100 E12       30.10S FOG
$$

IAZ055>058-069>071-079>083-090>094-210500-
   SOUTHWEST IOWA

CITY           SKY/WX    TMP DP  RH WIND       PRES   REMARKS
ATLANTIC *     CLOUDY    63  61  94 NE8       30.06F FOG
AUDUBON *      CLOUDY    59  57  94 E7        30.09S FOG
CLARINDA *     CLOUDY    66  63  88 CALM      30.07S
COUNCIL BLFS * CLOUDY    59  59 100 N5        30.06S FOG
CRESTON *      CLOUDY    63  61  94 NE10      30.08S FOG
HARLAN  *      CLOUDY    61  61 100 E3        30.10R FOG
LAMONI         HVY RAIN  64  63  96 NE6       30.05S FOG
RED OAK *      CLOUDY    64  61  88 E5        30.06R
SHENANDOAH *   CLOUDY    64  61  88 SW6       30.06R
$$

IAZ047>049-059>061-072>074-084-210500-
   CENTRAL IOWA

CITY           SKY/WX    TMP DP  RH WIND       PRES   REMARKS
AMES           LGT RAIN  58  55  90 E9        30.10S
ANKENY *       CLOUDY    59  55  88 E7        30.10S
BOONE *        CLOUDY    57  55  94 E12       30.09S FOG
CHARITON *     CLOUDY    61  57  88 NE10      30.06F
DES MOINES     LGT RAIN  61  56  83 E7        30.08S
GRINNELL*      LGT RAIN  57  55  91 E12       30.11S
KNOXVILLE *    CLOUDY    59  55  88 E10G16    30.07S
MARSHALLTOWN   CLOUDY    56  55  97 E13       30.11R
NEWTON *       CLOUDY    57  55  94 E13       30.09S FOG
PELLA *        DRIZZLE   59  55  87 E6        30.10S
PERRY *        RAIN      59  58  97 E8        30.09S
$$

IAZ004>006-015-016-023>025-035-036-210500-
   NORTH CENTRAL IOWA

CITY           SKY/WX    TMP DP  RH WIND       PRES   REMARKS
ALGONA *       CLOUDY    57  54  88 SE8       30.12S
CLARION *      CLOUDY    57  52  82 E10       30.12R
ESTHERVILLE    LGT RAIN  56  53  90 E6        30.12R
FORT DODGE *   CLOUDY    57  55  93 E9        30.10S
MASON CITY     CLOUDY    56  51  84 E7        30.13S
FOREST CITY *  CLOUDY    55  52  88 E7        30.12S
WEBSTER CITY * CLOUDY    57  55  94 E13       30.09S
IOWA FALLS *   CLOUDY    57  54  89 E12       30.13R
$$

IAZ007>011-017>019-026>030-037>042-050>054-066-210500-
   NORTHEAST IOWA

CITY           SKY/WX    TMP DP  RH WIND       PRES   REMARKS
CEDAR RAPIDS   CLOUDY    57  55  93 E13       30.11S
CHARLES CITY * CLOUDY    55  52  88 E12       30.13F
CLINTON *      CLOUDY    57  53  86 E13       30.15S
DECORAH *      CLOUDY    55  54  94 E8        30.14F
DUBUQUE        CLOUDY    56  52  86 E10       30.15F
MONTICELLO *   CLOUDY    57  55  94 E7        30.13S
OELWEIN *      CLOUDY    55  54  94 E12       30.15R
WATERLOO       CLOUDY    55  54  96 E9        30.12S
$$

IAZ064-065-067-068-078-210500-
   EAST CENTRAL IOWA

CITY           SKY/WX    TMP DP  RH WIND       PRES   REMARKS
DAVENPORT      MOCLDY    58  53  84 E16       30.15R
IOWA CITY      CLOUDY    60  55  83 E9        30.13R
MT. PLEASANT * CLOUDY    61  55  82 E8        30.10S
MUSCATINE *    MOCLDY    63  55  77 E10       30.12R
QUAD CITIES    FAIR      60  54  80 E10       30.12R
$$

IAZ062-063-075>077-085>089-095>099-210500-
   SOUTHEAST IOWA

CITY           SKY/WX    TMP DP  RH WIND       PRES   REMARKS
BURLINGTON     CLOUDY    63  56  78 E12       30.08S
FAIRFIELD *    CLOUDY    63  55  77 E14       30.08S
FORT MADISON * CLOUDY    64  57  77 E9        30.09S
KEOKUK *       CLOUDY    64  57  77 E7G15     30.07F
OSKALOOSA *    CLOUDY    60  57  88 E12       30.09S
OTTUMWA        CLOUDY    64  57  78 E9        30.08R
WASHINGTON *   CLOUDY    61  59  94 E12       30.11S
$$

ABBREVIATIONS USED IN REMARKS
   TC - TEMPERATURES IN CELSIUS
  WCI - WIND CHILL INDEX
   HX - HEAT INDEX
  VSB - VISIBILITY
$$





USA.gov is the U.S. government's official web portal to all federal, state and local government web resources and services.